VK2RZ Weather Reports


Display with metric or nautical units.
time (UTC)temp
F
wind
direction
speed
MPH
gust
MPH
rain 1hr
in
rain 24hr
in
rain mn
in
humidity
%
barometer
mb
20260509214126 56 246 6.0 13.0 0.00 0.00 0.00 7 1028.4
20260509213126 55 253 5.0 9.0 0.00 0.00 0.00 7 1028.3
20260509212126 55 247 5.0 10.0 0.00 0.00 0.00 7 1028.2
20260509211126 55 254 9.0 9.0 0.00 0.00 0.00 7 1028.0
20260509210126 54 247 9.0 10.0 0.00 0.00 0.00 8 1027.8
20260509205126 54 225 6.0 11.0 0.00 0.00 0.00 8 1027.6
20260509204126 54 250 9.0 11.0 0.00 0.00 0.00 7 1027.5
20260509203126 55 261 7.0 12.0 0.00 0.00 0.00 7 1027.4
20260509202126 55 276 3.0 7.0 0.00 0.00 0.00 7 1027.3
20260509201126 55 268 4.0 10.0 0.00 0.00 0.00 7 1027.1
20260509200126 55 257 5.0 7.0 0.00 0.00 0.00 7 1027.1
20260509195126 55 254 2.0 7.0 0.00 0.00 0.00 7 1027.0
20260509194126 56 268 5.0 9.0 0.00 0.00 0.00 7 1026.8
20260509193126 56 245 2.0 8.0 0.00 0.00 0.00 7 1026.6
20260509192126 56 270 3.0 6.0 0.00 0.00 0.00 7 1026.5
20260509191126 56 249 3.0 10.0 0.00 0.00 0.00 7 1026.5
20260509190126 56 285 3.0 9.0 0.00 0.00 0.00 7 1026.4
20260509185126 56 278 4.0 9.0 0.00 0.00 0.00 7 1026.3
20260509184126 56 271 6.0 10.0 0.00 0.00 0.00 7 1026.3
20260509183126 55 234 6.0 9.0 0.00 0.00 0.00 7 1026.1
20260509182126 56 259 3.0 9.0 0.00 0.00 0.00 7 1026.2
20260509181126 56 241 5.0 7.0 0.00 0.00 0.00 7 1026.2
20260509180126 56 250 4.0 7.0 0.00 0.00 0.00 7 1026.1
20260509175126 56 254 8.0 9.0 0.00 0.00 0.00 7 1026.2
20260509174126 56 253 7.0 8.0 0.00 0.00 0.00 7 1026.2
20260509173126 56 254 2.0 8.0 0.00 0.00 0.00 7 1026.0
20260509172126 56 236 10.0 10.0 0.00 0.00 0.00 7 1026.0
20260509171126 57 254 3.0 9.0 0.00 0.00 0.00 7 1026.1
20260509170126 57 261 4.0 11.0 0.00 0.00 0.00 7 1026.1
20260509165126 57 231 3.0 8.0 0.00 0.00 0.00 7 1026.1
20260509164126 57 243 4.0 10.0 0.00 0.00 0.00 7 1026.0
20260509163126 58 246 4.0 9.0 0.00 0.00 0.00 7 1025.9
20260509162126 58 216 7.0 10.0 0.00 0.00 0.00 7 1026.0
20260509161126 58 225 7.0 11.0 0.00 0.00 0.00 7 1026.0
20260509160126 58 224 6.0 12.0 0.00 0.00 0.00 7 1026.0
20260509155126 58 263 7.0 9.0 0.00 0.00 0.00 7 1026.1
20260509154126 58 233 5.0 11.0 0.00 0.00 0.00 7 1026.1
20260509153126 58 243 2.0 12.0 0.00 0.00 0.00 7 1026.1
20260509152126 58 246 5.0 10.0 0.00 0.00 0.00 7 1026.2
20260509151126 58 239 9.0 12.0 0.00 0.00 0.00 7 1026.2
20260509150126 58 264 12.0 14.0 0.00 0.00 0.00 7 1026.2
20260509145126 58 234 4.0 10.0 0.00 0.00 0.00 7 1026.3
20260509144125 58 258 7.0 12.0 0.00 0.00 0.00 7 1026.2
20260509143125 58 247 8.0 10.0 0.00 0.00 0.00 7 1026.2
20260509142244 58 215 6.0 10.0 0.00 0.00 0.00 7 1026.2
20260509142125 58 215 6.0 10.0 0.00 0.00 0.00 7 1026.2
20260509141125 57 220 9.0 12.0 0.00 0.00 0.00 7 1026.1
20260509140125 58 258 7.0 8.0 0.00 0.00 0.00 7 1026.1
20260509135125 58 229 4.0 10.0 0.00 0.00 0.00 7 1026.2
20260509134125 58 248 9.0 10.0 0.00 0.00 0.00 7 1026.3
20260509133125 58 252 5.0 10.0 0.00 0.00 0.00 7 1026.3
20260509132125 58 223 4.0 12.0 0.00 0.00 0.00 7 1026.3
20260509131125 59 251 10.0 11.0 0.00 0.00 0.00 7 1026.3
20260509130125 59 276 4.0 10.0 0.00 0.00 0.00 7 1026.4
20260509125125 59 260 5.0 11.0 0.00 0.00 0.00 7 1026.4
20260509124125 59 251 3.0 9.0 0.00 0.00 0.00 7 1026.5
20260509123125 60 237 4.0 11.0 0.00 0.00 0.00 7 1026.4
20260509122125 60 234 4.0 7.0 0.00 0.00 0.00 7 1026.5
20260509121124 60 247 4.0 4.0 0.00 0.00 0.00 7 1026.5
20260509120124 60 257 1.0 4.0 0.00 0.00 0.00 7 1026.6
20260509115124 60 239 4.0 5.0 0.00 0.00 0.00 7 1026.6
20260509114124 60 254 3.0 4.0 0.00 0.00 0.00 7 1026.5
20260509113122 61 237 2.0 4.0 0.00 0.00 0.00 7 1026.5
20260509112122 60 241 2.0 4.0 0.00 0.00 0.00 7 1026.5
20260509111122 60 248 1.0 5.0 0.00 0.00 0.00 7 1026.5
20260509110122 60 244 3.0 4.0 0.00 0.00 0.00 7 1026.5
20260509105122 60 316 1.0 3.0 0.00 0.00 0.00 7 1026.4
20260509104122 60 316 3.0 4.0 0.00 0.00 0.00 7 1026.4
20260509103122 60 70 3.0 3.0 0.00 0.00 0.00 7 1026.3
20260509102122 60 0 0.0 0.0 0.00 0.00 0.00 7 1026.2
20260509101122 60 0 0.0 0.0 0.00 0.00 0.00 7 1026.1
20260509100122 60 0 0.0 0.0 0.00 0.00 0.00 7 1026.0
20260509095121 61 0 0.0 0.0 0.00 0.00 0.00 7 1025.9
20260509094121 61 0 0.0 0.0 0.00 0.00 0.00 7 1025.9
20260509093120 60 0 0.0 0.0 0.00 0.00 0.00 7 1025.9
20260509092120 60 0 0.0 0.0 0.00 0.00 0.00 7 1025.9
20260509091120 61 0 0.0 0.0 0.00 0.00 0.00 7 1025.7
20260509090120 61 0 0.0 0.0 0.00 0.00 0.00 7 1025.6
20260509085120 61 0 0.0 0.0 0.00 0.00 0.00 7 1025.4
20260509084120 60 0 0.0 0.0 0.00 0.00 0.00 7 1025.3
20260509083120 61 0 0.0 0.0 0.00 0.00 0.00 7 1025.2
20260509082120 60 0 0.0 0.0 0.00 0.00 0.00 7 1025.1
20260509081120 61 0 0.0 0.0 0.00 0.00 0.00 7 1025.0
20260509080120 61 0 0.0 0.0 0.00 0.00 0.00 7 1024.8
20260509075120 60 0 0.0 0.0 0.00 0.00 0.00 7 1024.8
20260509074120 61 0 0.0 0.0 0.00 0.00 0.00 7 1024.7
20260509073120 61 0 0.0 0.0 0.00 0.00 0.00 7 1024.6
20260509072120 61 0 0.0 0.0 0.00 0.00 0.00 7 1024.6
20260509071120 62 0 0.0 1.0 0.00 0.00 0.00 7 1024.5
20260509070120 62 0 0.0 0.0 0.00 0.00 0.00 7 1024.4
20260509065120 63 70 1.0 3.0 0.00 0.00 0.00 6 1024.3
20260509064120 63 89 2.0 2.0 0.00 0.00 0.00 6 1024.1
20260509063120 63 0 0.0 3.0 0.00 0.00 0.00 6 1024.1
20260509062120 63 0 0.0 8.0 0.00 0.00 0.00 6 1024.0
20260509061120 64 74 1.0 7.0 0.00 0.00 0.00 6 1023.9
20260509060120 64 135 4.0 4.0 0.00 0.00 0.00 6 1023.7
20260509055120 64 143 1.0 6.0 0.00 0.00 0.00 6 1023.7
20260509054120 64 117 3.0 8.0 0.00 0.00 0.00 6 1023.7
20260509053119 65 149 1.0 3.0 0.00 0.00 0.00 6 1023.6
20260509052118 65 111 3.0 8.0 0.00 0.00 0.00 6 1023.6
20260509051118 65 114 8.0 10.0 0.00 0.00 0.00 6 1023.5
20260509050118 65 135 2.0 8.0 0.00 0.00 0.00 6 1023.5
20260509045118 65 90 3.0 9.0 0.00 0.00 0.00 6 1023.5
20260509044118 66 167 4.0 9.0 0.00 0.00 0.00 6 1023.4
20260509043118 66 106 4.0 6.0 0.00 0.00 0.00 6 1023.4
20260509042118 66 164 2.0 5.0 0.00 0.00 0.00 6 1023.3
20260509041118 66 175 3.0 5.0 0.00 0.00 0.00 6 1023.2
20260509040117 67 145 4.0 5.0 0.00 0.00 0.00 6 1023.3
20260509035117 67 133 8.0 12.0 0.00 0.00 0.00 5 1023.3
20260509034117 67 137 5.0 8.0 0.00 0.00 0.00 5 1023.2
20260509033117 68 0 0.0 3.0 0.00 0.00 0.00 5 1023.3
20260509032117 67 157 2.0 5.0 0.00 0.00 0.00 5 1023.4
20260509031117 67 0 0.0 2.0 0.00 0.00 0.00 5 1023.4
20260509030117 68 123 1.0 1.0 0.00 0.00 0.00 5 1023.5
20260509025117 67 0 0.0 4.0 0.00 0.00 0.00 5 1023.6
20260509024117 67 0 0.0 3.0 0.00 0.00 0.00 5 1023.7
20260509023117 68 230 4.0 5.0 0.00 0.00 0.00 5 1023.9
20260509022117 67 141 2.0 5.0 0.00 0.00 0.00 5 1024.0
20260509021117 67 230 1.0 6.0 0.00 0.00 0.00 5 1024.1
20260509020117 68 210 1.0 4.0 0.00 0.00 0.00 5 1024.2
20260509015117 66 175 1.0 6.0 0.00 0.00 0.00 5 1024.4
20260509014117 67 185 2.0 5.0 0.00 0.00 0.00 5 1024.5
20260509013117 67 216 2.0 5.0 0.00 0.00 0.00 5 1024.5
20260509012117 66 195 1.0 4.0 0.00 0.00 0.00 5 1024.6
20260509011117 66 237 2.0 5.0 0.00 0.00 0.00 5 1024.6
20260509010117 65 216 2.0 7.0 0.00 0.00 0.00 5 1024.5
20260509005117 64 239 4.0 7.0 0.00 0.00 0.00 5 1024.6
20260509004117 65 233 2.0 7.0 0.00 0.00 0.00 5 1024.6
20260509003117 64 238 2.0 9.0 0.00 0.00 0.00 5 1024.6
20260509002117 64 198 1.0 9.0 0.00 0.00 0.00 6 1024.7
20260509001150 63 231 7.0 7.0 0.00 0.00 0.00 6 1024.8
20260509001117 63 231 7.0 7.0 0.00 0.00 0.00 6 1024.8
20260509000117 62 233 3.0 5.0 0.00 0.00 0.00 6 1024.7
20260508235117 62 262 9.0 9.0 0.00 0.00 0.00 6 1024.8
20260508234117 61 216 9.0 12.0 0.00 0.00 0.00 6 1025.0
20260508233117 61 219 4.0 11.0 0.00 0.00 0.00 6 1024.9
20260508232117 60 248 9.0 10.0 0.00 0.00 0.00 6 1024.8
20260508231117 60 189 3.0 14.0 0.00 0.00 0.00 6 1024.8
20260508230117 59 245 12.0 14.0 0.00 0.00 0.00 6 1024.8
20260508225117 59 245 11.0 13.0 0.00 0.00 0.00 6 1024.8
20260508224117 58 249 5.0 16.0 0.00 0.00 0.00 6 1024.7
20260508223117 58 250 5.0 13.0 0.00 0.00 0.00 6 1024.8
20260508222117 57 256 8.0 12.0 0.00 0.00 0.00 7 1024.7
20260508221117 57 249 11.0 14.0 0.00 0.00 0.00 7 1024.6
20260508220117 57 249 9.0 14.0 0.00 0.00 0.00 7 1024.5
20260508215116 56 231 13.0 13.0 0.00 0.00 0.00 7 1024.5